Bow Valley, Alberta

6:10 AM MDT on September 26, 2017 (GMT -0600)
Bow Valley

Weather History for CWXA - November, 2012

Change the Weather History Date:

Saturday, November 3, 2012

  Actual Average Record
Temperature  
Mean Temperature 37 °F -  
Max Temperature 50 °F - - ()
Min Temperature 24 °F - - ()
Degree Days  
Heating Degree Days 28    
Moisture  
Dew Point 29 °F    
Average Humidity 69    
Maximum Humidity 99    
Minimum Humidity 40    
Precipitation  
Precipitation 0.00 in - - ()
Sea Level Pressure  
Sea Level Pressure 29.95 in    
Wind  
Wind Speed 5 mph ()    
Max Wind Speed 16 mph    
Max Gust Speed 31 mph    
T = Trace of Precipitation, MM = Missing Value Source: Averaged Metar Reports

Daily Weather History Graph

Daily Weather History Graph

Search for Another Location

Airport or City:

Trip Planner

Search our weather history database for the weather conditions in past years. The results will help you decide how hot, cold, wet, or windy it might be!

Date:

Astronomy

Nov. 03, 2012 Rise Set
Actual Time 8:37 AM MDT 6:09 PM MDT
Civil Twilight 8:02 AM MDT 6:44 PM MDT
Nautical Twilight 7:22 AM MDT 7:24 PM MDT
Astronomical Twilight 6:44 AM MDT 8:02 PM MDT
Moon 9:44 PM MDT (11/3) 12:56 PM MDT (11/3)
Length of Visible Light 10h 42m
Length of Day
9h 32m
Waning Gibbous, 80% of the Moon is Illuminated
Nov 3
Waning Gibbous
Nov 6
Last Quarter
Nov 13
New
Nov 20
First Quarter
Nov 28
Full

Hourly Weather History & Observations

Time (MDT) Temp. Windchill Dew Point Humidity Pressure Visibility Wind Dir Wind Speed Gust Speed Precip Events Conditions
12:00 AM 28 °F - 28 °F 98% 30.08 in - ENE 1.2 mph - -  
12:00 AM 28.0 °F - 27.7 °F 99% 30.08 in - ENE 1.2 mph - N/A   Unknown
1:00 AM 27.3 °F - 27.0 °F 99% 30.07 in - East 2.3 mph - N/A   Unknown
2:00 AM 26.1 °F - 25.5 °F 98% 30.06 in - East 1.2 mph - N/A   Unknown
3:00 AM 25.3 °F - 24.8 °F 98% 30.06 in - ENE 1.2 mph - N/A   Unknown
5:00 AM 26.6 °F - 26.1 °F 98% 30.03 in - East 2.3 mph - N/A   Unknown
6:00 AM 32 °F - 31 °F 92% 30.00 in - WSW 4.6 mph - -  
6:00 AM 31.8 °F 27.3 °F 30.6 °F 95% 30.00 in - WSW 4.6 mph - N/A   Unknown
7:00 AM 35.2 °F 30.3 °F 25.0 °F 66% 30.00 in - WSW 5.8 mph - N/A   Unknown
8:00 AM 41.4 °F 39.4 °F 26.4 °F 55% 29.97 in - SW 3.5 mph - N/A   Unknown
9:00 AM 39.9 °F 34.5 °F 26.6 °F 59% 29.96 in - WSW 8.1 mph - N/A   Unknown
10:00 AM 41.5 °F 36.4 °F 27.1 °F 57% 29.96 in - WSW 8.1 mph - N/A   Unknown
11:00 AM 43.3 °F 38.6 °F 28.2 °F 55% 29.94 in - WSW 8.1 mph - N/A   Unknown
12:00 PM 44 °F - 29 °F 44% 29.92 in - West 6.9 mph - -  
12:00 PM 44.4 °F 40.5 °F 29.3 °F 55% 29.92 in - West 6.9 mph - N/A   Unknown
1:00 PM 47.5 °F - 30.6 °F 52% 29.90 in - WSW 8.1 mph - N/A   Unknown
2:00 PM 49.5 °F - 30.4 °F 48% 29.88 in - WSW 9.2 mph - N/A   Unknown
3:00 PM 49.8 °F - 29.8 °F 46% 29.86 in - WSW 12.7 mph 26.5 mph N/A   Unknown
4:00 PM 49.3 °F - 30.0 °F 48% 29.85 in - WSW 12.7 mph 20.7 mph N/A   Unknown
5:00 PM 48.2 °F - 30.7 °F 51% 29.84 in - WSW 16.1 mph 31.1 mph N/A   Unknown
6:00 PM 47 °F - 31 °F 40% 29.86 in - WSW 11.5 mph - -  
6:00 PM 46.8 °F - 30.6 °F 53% 29.86 in - WSW 11.5 mph 19.6 mph N/A   Unknown
7:00 PM 44.6 °F 38.8 °F 31.3 °F 60% 29.84 in - West 11.5 mph 19.6 mph N/A   Unknown
8:00 PM 45.0 °F 38.2 °F 31.8 °F 60% 29.86 in - WSW 15.0 mph 27.6 mph N/A   Unknown
9:00 PM 43.2 °F 37.4 °F 34.9 °F 73% 29.92 in - WSW 10.4 mph 18.4 mph N/A   Unknown
10:00 PM 39.4 °F 34.5 °F 35.2 °F 85% 29.94 in - WSW 6.9 mph - N/A   Unknown
11:00 PM 40.8 °F 33.3 °F 34.2 °F 77% 29.95 in - WSW 13.8 mph 25.3 mph N/A   Unknown